• In Deutschland
  • Länderverzeichnis
  • Für 7 Tage
  • Wassertemperatur
  • Satellitenkarten
  • Wetterkarte
  • Widgets
  • user-avatar
    Anmelden

    Stündliche Wetter Yopal

    Heute, 16 Januar, Dienstag

    Zeit Temperatur Niederschläge Wind Luftdruck Luftfeuchtigkeit
    00:00 +26°C° 0 mm 1 m/S 730 mmHg 64%
    01:00 +26°C° 0 mm 1 m/S 730 mmHg 64%
    02:00 +26°C° 0,1 mm 1 m/S 729 mmHg 64%
    03:00 +26°C° 0,1 mm 1 m/S 729 mmHg 63%
    04:00 +25°C° 0,1 mm 1 m/S 729 mmHg 63%
    05:00 +25°C° 0,1 mm 1 m/S 730 mmHg 62%
    06:00 +26°C° 0,1 mm 1 m/S 730 mmHg 61%
    07:00 +26°C° 0,1 mm 1 m/S 731 mmHg 60%
    08:00 +28°C° 0 mm 1 m/S 731 mmHg 55%
    09:00 +30°C° 0 mm 2 m/S 731 mmHg 49%
    10:00 +34°C° 0 mm 2 m/S 731 mmHg 44%
    11:00 +34°C° 0 mm 3 m/S 731 mmHg 43%
    12:00 +35°C° 0 mm 3 m/S 730 mmHg 42%
    13:00 +36°C° 0 mm 3 m/S 729 mmHg 41%
    14:00 +36°C° 0,1 mm 3 m/S 729 mmHg 42%
    15:00 +35°C° 0,1 mm 3 m/S 728 mmHg 43%
    16:00 +35°C° 0,1 mm 3 m/S 728 mmHg 43%
    17:00 +32°C° 0 mm 2 m/S 728 mmHg 49%
    18:00 +31°C° 0 mm 2 m/S 729 mmHg 55%
    19:00 +29°C° 0 mm 1 m/S 729 mmHg 61%
    20:00 +28°C° 0,3 mm 1 m/S 729 mmHg 63%
    21:00 +28°C° 0,3 mm 1 m/S 730 mmHg 65%
    22:00 +27°C° 0,3 mm 1 m/S 730 mmHg 67%
    23:00 +27°C° 0 mm 1 m/S 730 mmHg 67%

    Morgen, 17 Januar, Mittwoch

    Zeit Temperatur Niederschläge Wind Luftdruck Luftfeuchtigkeit
    00:00 +26°C° 0 mm 1 m/S 730 mmHg 68%
    01:00 +26°C° 0 mm 1 m/S 730 mmHg 68%
    02:00 +26°C° 0,1 mm 1 m/S 729 mmHg 69%
    03:00 +25°C° 0,1 mm 1 m/S 729 mmHg 69%
    04:00 +25°C° 0,1 mm 1 m/S 729 mmHg 70%
    05:00 +25°C° 0,2 mm 1 m/S 730 mmHg 70%
    06:00 +25°C° 0,2 mm 1 m/S 730 mmHg 69%
    07:00 +24°C° 0,2 mm 0 m/S 731 mmHg 69%
    08:00 +27°C° 0,3 mm 1 m/S 731 mmHg 63%
    09:00 +29°C° 0,3 mm 1 m/S 732 mmHg 58%
    10:00 +31°C° 0,3 mm 2 m/S 732 mmHg 52%
    11:00 +32°C° 0 mm 2 m/S 731 mmHg 50%
    12:00 +34°C° 0 mm 3 m/S 731 mmHg 48%
    13:00 +35°C° 0 mm 3 m/S 730 mmHg 46%
    14:00 +35°C° 0,1 mm 3 m/S 729 mmHg 49%
    15:00 +34°C° 0,1 mm 2 m/S 728 mmHg 51%
    16:00 +32°C° 0,1 mm 2 m/S 728 mmHg 54%
    17:00 +31°C° 0,1 mm 2 m/S 728 mmHg 60%
    18:00 +29°C° 0,1 mm 1 m/S 729 mmHg 66%
    19:00 +28°C° 0,1 mm 1 m/S 729 mmHg 72%
    20:00 +27°C° 0,4 mm 1 m/S 729 mmHg 75%
    21:00 +27°C° 0,4 mm 1 m/S 730 mmHg 78%
    22:00 +26°C° 0,4 mm 1 m/S 731 mmHg 81%
    23:00 +26°C° 0,2 mm 1 m/S 730 mmHg 81%

    übermorgen, 18 Januar, Donnerstag

    Zeit Temperatur Niederschläge Wind Luftdruck Luftfeuchtigkeit
    00:00 +25°C° 0,2 mm 1 m/S 730 mmHg 81%
    01:00 +25°C° 0,2 mm 1 m/S 730 mmHg 81%
    02:00 +25°C° 0 mm 1 m/S 729 mmHg 80%
    03:00 +25°C° 0 mm 1 m/S 729 mmHg 80%
    04:00 +25°C° 0 mm 1 m/S 729 mmHg 79%
    05:00 +25°C° 0,1 mm 1 m/S 729 mmHg 78%
    06:00 +25°C° 0,1 mm 1 m/S 730 mmHg 76%
    07:00 +26°C° 0,1 mm 1 m/S 731 mmHg 74%
    08:00 +27°C° 0,7 mm 1 m/S 731 mmHg 72%
    09:00 +28°C° 0,7 mm 2 m/S 732 mmHg 70%
    10:00 +29°C° 0,7 mm 2 m/S 732 mmHg 67%
    11:00 +29°C° 0,4 mm 2 m/S 731 mmHg 64%
    12:00 +30°C° 0,4 mm 2 m/S 731 mmHg 62%
    13:00 +31°C° 0,4 mm 2 m/S 730 mmHg 59%
    14:00 +31°C° 0,2 mm 2 m/S 729 mmHg 58%
    15:00 +31°C° 0,2 mm 3 m/S 728 mmHg 56%
    16:00 +33°C° 0,2 mm 3 m/S 728 mmHg 55%
    17:00 +30°C° 0 mm 2 m/S 728 mmHg 62%
    18:00 +28°C° 0 mm 1 m/S 728 mmHg 70%
    19:00 +26°C° 0 mm 1 m/S 729 mmHg 78%
    20:00 +26°C° 0,2 mm 1 m/S 729 mmHg 79%
    21:00 +26°C° 0,2 mm 1 m/S 730 mmHg 80%
    22:00 +25°C° 0,2 mm 1 m/S 730 mmHg 81%
    23:00 +25°C° 0,2 mm 1 m/S 730 mmHg 80%

    19 Januar, Freitag

    Zeit Temperatur Niederschläge Wind Luftdruck Luftfeuchtigkeit
    00:00 +25°C° 0,2 mm 1 m/S 730 mmHg 80%
    01:00 +25°C° 0,2 mm 1 m/S 729 mmHg 80%
    02:00 +24°C° 0 mm 1 m/S 729 mmHg 78%
    03:00 +24°C° 0 mm 1 m/S 729 mmHg 76%
    04:00 +24°C° 0 mm 1 m/S 729 mmHg 75%
    05:00 +25°C° 0,2 mm 1 m/S 729 mmHg 73%
    06:00 +25°C° 0,2 mm 1 m/S 730 mmHg 72%
    07:00 +23°C° 0,2 mm 0 m/S 731 mmHg 71%
    08:00 +27°C° 0,2 mm 1 m/S 731 mmHg 67%
    09:00 +29°C° 0,2 mm 1 m/S 731 mmHg 62%
    10:00 +30°C° 0,2 mm 2 m/S 732 mmHg 58%
    11:00 +31°C° 0,1 mm 2 m/S 731 mmHg 55%
    12:00 +33°C° 0,1 mm 3 m/S 730 mmHg 53%
    13:00 +34°C° 0,1 mm 3 m/S 730 mmHg 50%
    14:00 +34°C° 0,1 mm 3 m/S 729 mmHg 51%
    15:00 +34°C° 0,1 mm 3 m/S 728 mmHg 52%
    16:00 +32°C° 0,1 mm 2 m/S 728 mmHg 52%
    17:00 +30°C° 0,1 mm 2 m/S 728 mmHg 60%
    18:00 +29°C° 0,1 mm 1 m/S 729 mmHg 67%
    19:00 +27°C° 0,1 mm 1 m/S 729 mmHg 75%
    20:00 +26°C° 0,2 mm 1 m/S 729 mmHg 75%
    21:00 +26°C° 0,2 mm 1 m/S 730 mmHg 76%
    22:00 +26°C° 0,2 mm 1 m/S 731 mmHg 77%
    23:00 +25°C° 0 mm 1 m/S 730 mmHg 76%

    20 Januar, Samstag

    Zeit Temperatur Niederschläge Wind Luftdruck Luftfeuchtigkeit
    00:00 +25°C° 0 mm 1 m/S 730 mmHg 74%
    01:00 +25°C° 0 mm 1 m/S 730 mmHg 73%
    02:00 +25°C° 0,1 mm 1 m/S 729 mmHg 72%
    03:00 +25°C° 0,1 mm 1 m/S 729 mmHg 72%
    04:00 +24°C° 0,1 mm 1 m/S 729 mmHg 72%
    05:00 +25°C° 0,2 mm 1 m/S 730 mmHg 72%
    06:00 +25°C° 0,2 mm 1 m/S 730 mmHg 71%
    07:00 +23°C° 0,2 mm 0 m/S 731 mmHg 71%
    08:00 +27°C° 0,2 mm 1 m/S 731 mmHg 66%
    09:00 +29°C° 0,2 mm 2 m/S 731 mmHg 60%
    10:00 +31°C° 0,2 mm 2 m/S 732 mmHg 55%
    11:00 +33°C° 0 mm 3 m/S 731 mmHg 53%
    12:00 +33°C° 0 mm 3 m/S 730 mmHg 50%
    13:00 +34°C° 0 mm 4 m/S 729 mmHg 48%
    14:00 +34°C° 0,1 mm 3 m/S 729 mmHg 49%
    15:00 +34°C° 0,1 mm 3 m/S 728 mmHg 49%
    16:00 +34°C° 0,1 mm 3 m/S 728 mmHg 50%
    17:00 +31°C° 0,1 mm 2 m/S 728 mmHg 57%
    18:00 +29°C° 0,1 mm 2 m/S 728 mmHg 63%
    19:00 +27°C° 0,1 mm 1 m/S 729 mmHg 69%
    20:00 +27°C° 0 mm 1 m/S 729 mmHg 69%
    21:00 +26°C° 0 mm 1 m/S 730 mmHg 70%
    22:00 +26°C° 0 mm 1 m/S 730 mmHg 70%
    23:00 +25°C° 0 mm 1 m/S 730 mmHg 68%

    21 Januar, Sonntag

    Zeit Temperatur Niederschläge Wind Luftdruck Luftfeuchtigkeit
    00:00 +25°C° 0 mm 1 m/S 730 mmHg 66%
    01:00 +25°C° 0 mm 1 m/S 729 mmHg 64%
    02:00 +24°C° 0 mm 1 m/S 729 mmHg 62%
    03:00 +24°C° 0 mm 1 m/S 729 mmHg 60%
    04:00 +24°C° 0 mm 1 m/S 729 mmHg 58%
    05:00 +24°C° 0 mm 1 m/S 729 mmHg 57%
    06:00 +25°C° 0 mm 1 m/S 730 mmHg 56%
    07:00 +25°C° 0 mm 1 m/S 730 mmHg 55%
    08:00 +27°C° 0 mm 2 m/S 731 mmHg 49%
    09:00 +30°C° 0 mm 3 m/S 731 mmHg 43%
    10:00 +33°C° 0 mm 3 m/S 731 mmHg 37%
    11:00 +34°C° 0 mm 3 m/S 730 mmHg 38%
    12:00 +35°C° 0 mm 4 m/S 729 mmHg 38%
    13:00 +36°C° 0 mm 4 m/S 729 mmHg 38%
    14:00 +35°C° 0 mm 4 m/S 728 mmHg 40%
    15:00 +35°C° 0 mm 3 m/S 727 mmHg 41%
    16:00 +35°C° 0 mm 3 m/S 727 mmHg 43%
    17:00 +32°C° 0 mm 2 m/S 727 mmHg 50%
    18:00 +30°C° 0 mm 2 m/S 727 mmHg 56%
    19:00 +28°C° 0 mm 1 m/S 728 mmHg 63%
    20:00 +27°C° 0 mm 1 m/S 728 mmHg 63%
    21:00 +27°C° 0 mm 1 m/S 729 mmHg 63%
    22:00 +26°C° 0 mm 1 m/S 729 mmHg 64%
    23:00 +26°C° 0 mm 1 m/S 729 mmHg 63%
    Mehr zeigen